Weather History for KRZL - June, 2013

Change the Weather History Date:

Thursday, June 6, 2013

  Actual Average (KVPZ) Record (KVPZ)
Temperature  
Mean Temperature 64 °F 66 °F  
Max Temperature 73 °F 77 °F 92 °F (1999)
Min Temperature 55 °F 56 °F 38 °F (1998)
Degree Days  
Heating Degree Days 1 3  
Month to date heating degree days 18  
Since 1 June heating degree days 18  
Since 1 July heating degree days 6297  
Cooling Degree Days 0 4  
Month to date cooling degree days 21  
Year to date cooling degree days 68  
Since 1 June cooling degree days 21  
Growing Degree Days 14 (Base 50)    
Moisture  
Dew Point 49 °F    
Average Humidity 57    
Maximum Humidity 82    
Minimum Humidity 43    
Precipitation  
Precipitation 0.00 in 0.14 in 0.37 in (2008)
Month to date precipitation 0.81  
Year to date precipitation 13.79  
Sea Level Pressure  
Sea Level Pressure 29.87 in    
Wind  
Wind Speed 10 mph (NNE)    
Max Wind Speed 16 mph    
Max Gust Speed 20 mph    
Visibility 10 miles    
Events      
T = Trace of Precipitation, MM = Missing Value Source: NWS Daily Summary

Daily Weather History Graph

Daily Weather History Graph

Search for Another Location

Airport or City:

Trip Planner

Search our weather history database for the weather conditions in past years. The results will help you decide how hot, cold, wet, or windy it might be!

Date:

Astronomy

Jun. 06, 2013 Rise Set
Actual Time 5:17 AM CDT 8:18 PM CDT
Civil Twilight 4:44 AM CDT 8:51 PM CDT
Nautical Twilight 4:01 AM CDT 9:33 PM CDT
Astronomical Twilight 3:12 AM CDT 10:23 PM CDT
Moon 3:59 AM CDT (6/6) 6:38 PM CDT (6/6)
Length of Visible Light 16h 07m
Length of Day
15h 00m
Waning Crescent, 3% of the Moon is Illuminated
Jun 6
Waning Crescent
Jun 8
New
Jun 16
First Quarter
Jun 23
Full
Jun 29
Last Quarter

Hourly Weather History & Observations

Time (CDT) Temp. Dew Point Humidity Pressure Visibility Wind Dir Wind Speed Gust Speed Precip Events Conditions
12:15 AM 64.4 °F 53.6 °F 68% 29.91 in 10.0 mi ENE 8.1 mph - N/A   Clear
12:35 AM 64.4 °F 53.6 °F 68% 29.91 in 10.0 mi East 8.1 mph - N/A   Clear
12:55 AM 64.4 °F 53.6 °F 68% 29.90 in 10.0 mi ENE 9.2 mph - N/A   Clear
1:15 AM 64.4 °F 50.0 °F 59% 29.90 in 10.0 mi East 8.1 mph - N/A   Clear
1:35 AM 62.6 °F 50.0 °F 63% 29.89 in 10.0 mi ENE 9.2 mph - N/A   Scattered Clouds
1:55 AM 62.6 °F 46.4 °F 55% 29.89 in 10.0 mi ENE 9.2 mph - N/A   Scattered Clouds
2:15 AM 62.6 °F 42.8 °F 48% 29.88 in 10.0 mi ENE 11.5 mph - N/A   Scattered Clouds
2:35 AM 62.6 °F 41.0 °F 45% 29.88 in 10.0 mi ENE 11.5 mph - N/A   Clear
2:55 AM 62.6 °F 41.0 °F 45% 29.88 in 10.0 mi ENE 11.5 mph - N/A   Scattered Clouds
3:15 AM 60.8 °F 42.8 °F 52% 29.88 in 10.0 mi ENE 8.1 mph - N/A   Scattered Clouds
3:35 AM 60.8 °F 42.8 °F 52% 29.87 in 10.0 mi ENE 8.1 mph - N/A   Clear
3:55 AM 60.8 °F 42.8 °F 52% 29.87 in 10.0 mi ENE 10.4 mph - N/A   Clear
4:15 AM 59.0 °F 42.8 °F 55% 29.86 in 10.0 mi NE 10.4 mph - N/A   Clear
4:35 AM 59.0 °F 42.8 °F 55% 29.86 in 10.0 mi ENE 8.1 mph - N/A   Scattered Clouds
4:55 AM 59.0 °F 44.6 °F 59% 29.86 in 10.0 mi NE 9.2 mph - N/A   Scattered Clouds
5:15 AM 59.0 °F 44.6 °F 59% 29.87 in 10.0 mi ENE 6.9 mph - N/A   Scattered Clouds
5:35 AM 59.0 °F 44.6 °F 59% 29.87 in 10.0 mi NE 8.1 mph - N/A   Scattered Clouds
5:55 AM 59.0 °F 44.6 °F 59% 29.87 in 10.0 mi NE 9.2 mph - N/A   Scattered Clouds
6:15 AM 59.0 °F 46.4 °F 63% 29.87 in 10.0 mi NE 9.2 mph - N/A   Scattered Clouds
6:35 AM 59.0 °F 46.4 °F 63% 29.87 in 10.0 mi NE 9.2 mph - N/A   Clear
6:55 AM 59.0 °F 46.4 °F 63% 29.87 in 10.0 mi NE 9.2 mph - N/A   Clear
7:15 AM 60.8 °F 46.4 °F 59% 29.87 in 10.0 mi NE 11.5 mph - N/A   Clear
7:35 AM 60.8 °F 48.2 °F 63% 29.87 in 10.0 mi ENE 15.0 mph 19.6 mph N/A   Clear
7:55 AM 60.8 °F 48.2 °F 63% 29.87 in 10.0 mi NE 16.1 mph 19.6 mph N/A   Clear
8:15 AM 60.8 °F 48.2 °F 63% 29.87 in 10.0 mi ENE 15.0 mph - N/A   Clear
8:35 AM 60.8 °F 48.2 °F 63% 29.87 in 10.0 mi ENE 11.5 mph - N/A   Clear
8:55 AM 62.6 °F 48.2 °F 59% 29.88 in 10.0 mi ENE 13.8 mph - N/A   Clear
9:15 AM 62.6 °F 48.2 °F 59% 29.87 in 10.0 mi NE 15.0 mph - N/A   Clear
9:35 AM 64.4 °F 48.2 °F 56% 29.87 in 10.0 mi NE 13.8 mph - N/A   Clear
9:55 AM 66.2 °F 50.0 °F 56% 29.86 in 10.0 mi ENE 10.4 mph - N/A   Clear
10:15 AM 68.0 °F 50.0 °F 52% 29.86 in 10.0 mi ENE 11.5 mph - N/A   Clear
10:35 AM 68.0 °F 50.0 °F 52% 29.86 in 10.0 mi NE 9.2 mph 16.1 mph N/A   Clear
10:55 AM 68.0 °F 50.0 °F 52% 29.87 in 10.0 mi ENE 9.2 mph - N/A   Clear
11:15 AM 69.8 °F 50.0 °F 49% 29.87 in 10.0 mi NNE 5.8 mph - N/A   Scattered Clouds
11:35 AM 69.8 °F 50.0 °F 49% 29.88 in 10.0 mi North 8.1 mph - N/A   Overcast
11:55 AM 71.6 °F 50.0 °F 46% 29.87 in 7.0 mi North 9.2 mph - N/A   Scattered Clouds
12:15 PM 71.6 °F 50.0 °F 46% 29.86 in 10.0 mi North 6.9 mph - N/A   Clear
12:35 PM 71.6 °F 50.0 °F 46% 29.86 in 10.0 mi NNW 9.2 mph 17.3 mph N/A   Clear
12:55 PM 73.4 °F 50.0 °F 44% 29.85 in 10.0 mi NNE 15.0 mph - N/A   Clear
1:15 PM 71.6 °F 51.8 °F 50% 29.85 in 10.0 mi North 12.7 mph - N/A   Scattered Clouds
1:35 PM 69.8 °F 53.6 °F 56% 29.84 in 10.0 mi NNE 15.0 mph - N/A   Mostly Cloudy
1:55 PM 69.8 °F 53.6 °F 56% 29.84 in 10.0 mi NNE 13.8 mph - N/A   Mostly Cloudy
2:15 PM 71.6 °F 51.8 °F 50% 29.84 in 10.0 mi NNE 11.5 mph - N/A   Scattered Clouds
2:35 PM 73.4 °F 53.6 °F 50% 29.84 in 10.0 mi North 10.4 mph 16.1 mph N/A   Clear
2:55 PM 73.4 °F 51.8 °F 47% 29.84 in 10.0 mi North 9.2 mph - N/A   Scattered Clouds
3:15 PM 73.4 °F 51.8 °F 47% 29.84 in 10.0 mi North 11.5 mph - N/A   Clear
3:35 PM 73.4 °F 50.0 °F 44% 29.84 in 10.0 mi North 8.1 mph 17.3 mph N/A   Clear
3:55 PM 73.4 °F 51.8 °F 47% 29.85 in 10.0 mi North 11.5 mph - N/A   Clear
4:15 PM 73.4 °F 51.8 °F 47% 29.85 in 10.0 mi North 9.2 mph - N/A   Clear
4:35 PM 73.4 °F 50.0 °F 44% 29.84 in 10.0 mi NNE 12.7 mph - N/A   Clear
4:55 PM 73.4 °F 51.8 °F 47% 29.84 in 10.0 mi NNE 11.5 mph - N/A   Clear
5:15 PM 73.4 °F 51.8 °F 47% 29.84 in 10.0 mi NNE 12.7 mph - N/A   Clear
5:35 PM 71.6 °F 50.0 °F 46% 29.84 in 10.0 mi North 12.7 mph 18.4 mph N/A   Clear
5:55 PM 69.8 °F 48.2 °F 46% 29.85 in 10.0 mi North 12.7 mph - N/A   Clear
6:15 PM 69.8 °F 46.4 °F 43% 29.86 in 10.0 mi North 12.7 mph 16.1 mph N/A   Clear
6:35 PM 68.0 °F 48.2 °F 49% 29.86 in 10.0 mi North 11.5 mph 17.3 mph N/A   Clear
6:55 PM 68.0 °F 46.4 °F 46% 29.85 in 10.0 mi North 13.8 mph - N/A   Clear
7:15 PM 66.2 °F 48.2 °F 52% 29.86 in 10.0 mi North 15.0 mph 19.6 mph N/A   Clear
7:35 PM 64.4 °F 48.2 °F 56% 29.86 in 10.0 mi North 11.5 mph - N/A   Clear
7:55 PM 62.6 °F 50.0 °F 63% 29.86 in 10.0 mi North 8.1 mph - N/A   Scattered Clouds
8:15 PM 62.6 °F 50.0 °F 63% 29.86 in 10.0 mi North 9.2 mph - N/A   Scattered Clouds
8:35 PM 60.8 °F 50.0 °F 68% 29.87 in 10.0 mi North 11.5 mph - N/A   Clear
8:55 PM 60.8 °F 50.0 °F 68% 29.87 in 10.0 mi North 9.2 mph - N/A   Scattered Clouds
9:15 PM 59.0 °F 50.0 °F 72% 29.88 in 10.0 mi North 12.7 mph - N/A   Overcast
9:35 PM 59.0 °F 50.0 °F 72% 29.89 in 10.0 mi North 12.7 mph 16.1 mph N/A   Overcast
9:55 PM 57.2 °F 50.0 °F 77% 29.89 in 10.0 mi North 12.7 mph - N/A   Mostly Cloudy
10:15 PM 55.4 °F 50.0 °F 82% 29.89 in 10.0 mi North 10.4 mph 17.3 mph N/A   Mostly Cloudy
10:35 PM 55.4 °F 50.0 °F 82% 29.89 in 10.0 mi North 9.2 mph - N/A   Mostly Cloudy
10:55 PM 55.4 °F 50.0 °F 82% 29.88 in 10.0 mi North 8.1 mph - N/A   Mostly Cloudy
11:15 PM 55.4 °F 50.0 °F 82% 29.89 in 10.0 mi North 5.8 mph - N/A   Mostly Cloudy
11:35 PM 55.4 °F 50.0 °F 82% 29.88 in 10.0 mi North 8.1 mph - N/A   Scattered Clouds
11:55 PM 55.4 °F 50.0 °F 82% 29.88 in 10.0 mi North 6.9 mph - N/A   Scattered Clouds